#timestamp,LO_Frequency,Hit,Temp,Hum 
1479114015.8,286046986.8,N,0.0,0.0
1479114035.7,286046983.2,N,0.0,0.0
1479114055.5,286046986.5,N,0.0,0.0
1479114075.3,286046983.4,N,0.0,0.0
1479114095.2,286046982.1,N,0.0,0.0
1479114115.9,286046983.7,N,0.0,0.0
1479114135.7,286046982.4,N,0.0,0.0
1479114155.6,286046985.1,N,0.0,0.0
1479114175.4,286046982.2,N,0.0,0.0
1479114195.2,286046982.8,N,0.0,0.0
1479114215.1,286046983.5,N,0.0,0.0
1479114216.0,286046983.5,N,0.0,0.0
1479114235.8,286046980.9,N,0.0,0.0
1479114255.7,286046983.1,N,0.0,0.0
1479114275.5,286046983.5,N,0.0,0.0
1479114295.3,286046981.6,N,0.0,0.0
1479114315.2,286046979.4,N,0.0,0.0
1479114335.0,286046980.9,N,0.0,0.0
1479114335.9,286046980.9,N,0.0,0.0
1479114355.7,286046982.6,N,0.0,0.0
1479114375.6,286046985.2,N,0.0,0.0
1479114395.4,286046983.2,N,0.0,0.0
1479114415.3,286046980.9,N,0.0,0.0
1479114435.1,286046982.6,N,0.0,0.0
1479114436.0,286046982.6,N,0.0,0.0
1479114455.8,286046984.1,N,0.0,0.0
1479114475.7,286046983.3,N,0.0,0.0
1479114495.5,286046984.7,N,0.0,0.0
1479114515.3,286046984.6,N,0.0,0.0
1479114535.2,286046985.4,N,0.0,0.0
1479114555.0,286046983.9,N,0.0,0.0
1479114555.9,286046983.9,N,0.0,0.0
1479114575.8,286046985.2,N,0.0,0.0
1479114595.6,286046985.1,N,0.0,0.0
1479114615.4,286046982.2,N,0.0,0.0
1479114635.3,286046982.2,N,0.0,0.0
1479114655.1,286046982.5,N,0.0,0.0
1479114675.8,286046983.8,N,0.0,0.0
1479114695.7,286046984.3,N,0.0,0.0
1479114715.5,286046982.6,N,0.0,0.0
1479114735.4,286046984.9,N,0.0,0.0
1479114755.2,286046984.8,N,0.0,0.0
1479114775.0,286046984.1,N,0.0,0.0
1479114775.9,286046984.1,N,0.0,0.0
1479114795.8,286046982.4,N,0.0,0.0
1479114815.6,286046984.8,N,0.0,0.0
1479114835.4,286046984.8,N,0.0,0.0
1479114855.3,286046982.5,N,0.0,0.0
1479114875.1,286046982.7,N,0.0,0.0
1479114895.9,286046991.5,N,0.0,0.0
1479114915.7,286046984.1,N,0.0,0.0
1479114935.5,286046984.1,N,0.0,0.0
1479114955.4,286046985.0,N,0.0,0.0
1479114975.2,286046982.5,N,0.0,0.0
1479114995.0,286046977.9,N,0.0,0.0
1479114995.9,286046977.9,N,0.0,0.0
1479115015.8,286046983.9,N,0.0,0.0
1479115035.6,286046984.2,N,0.0,0.0
1479115055.5,286046984.3,N,0.0,0.0
1479115075.3,286046984.3,N,0.0,0.0
1479115095.1,286046983.7,N,0.0,0.0
1479115115.9,286046982.0,N,0.0,0.0
1479115135.7,286046983.5,N,0.0,0.0
1479115155.5,286046987.6,N,0.0,0.0
1479115175.4,286046982.6,N,0.0,0.0
1479115195.2,286046982.3,N,0.0,0.0
1479115215.0,286046982.9,N,0.0,0.0
1479115216.0,286046982.9,N,0.0,0.0
1479115235.8,286046983.1,N,0.0,0.0
1479115255.6,286046979.5,N,0.0,0.0
1479115275.5,286046979.1,N,0.0,0.0
1479115295.3,286046983.5,N,0.0,0.0
1479115315.1,286046983.2,N,0.0,0.0
1479115335.9,286046981.8,N,0.0,0.0
1479115355.7,286046983.0,N,0.0,0.0
1479115375.5,286046981.4,N,0.0,0.0
1479115395.4,286046981.4,N,0.0,0.0
1479115415.2,286046981.3,N,0.0,0.0
1479115435.0,286046981.5,N,0.0,0.0
1479115436.0,286046981.5,N,0.0,0.0
1479115455.8,286046984.4,N,0.0,0.0
1479115475.6,286046980.6,N,0.0,0.0
1479115495.5,286046980.8,N,0.0,0.0
1479115515.3,286046979.8,N,0.0,0.0
1479115535.1,286046979.1,N,0.0,0.0
1479115555.9,286046982.0,N,0.0,0.0
1479115575.7,286046981.7,N,0.0,0.0
1479115595.5,286046979.7,N,0.0,0.0
1479115615.4,286046979.8,N,0.0,0.0
1479115635.2,286046979.2,N,0.0,0.0
1479115655.1,286046977.7,N,0.0,0.0
1479115656.0,286046977.7,N,0.0,0.0
1479115675.8,286046978.9,N,0.0,0.0
1479115695.6,286046979.2,N,0.0,0.0
1479115715.5,286046979.7,N,0.0,0.0
1479115735.3,286046981.7,N,0.0,0.0
1479115755.1,286046979.1,N,0.0,0.0
1479115775.9,286046979.1,N,0.0,0.0
1479115795.7,286046982.0,N,0.0,0.0
1479115815.6,286046981.5,N,0.0,0.0
1479115835.4,286046981.7,N,0.0,0.0
1479115855.2,286046980.3,N,0.0,0.0
1479115875.1,286046979.5,N,0.0,0.0
1479115876.0,286046979.5,N,0.0,0.0
1479115895.8,286046979.6,N,0.0,0.0
1479115915.7,286046980.3,N,0.0,0.0
1479115935.5,286046979.7,N,0.0,0.0
1479115955.3,286046979.8,N,0.0,0.0
1479115975.2,286046979.2,N,0.0,0.0
1479115995.9,286046979.6,N,0.0,0.0
1479116015.7,286046978.8,N,0.0,0.0
1479116035.6,286046979.4,N,0.0,0.0
1479116055.4,286046976.0,N,0.0,0.0
1479116075.2,286046981.9,N,0.0,0.0
1479116095.1,286046982.0,N,0.0,0.0
1479116096.0,286046982.0,N,0.0,0.0
1479116115.8,286046980.4,N,0.0,0.0
1479116135.7,286046979.2,N,0.0,0.0
1479116155.5,286046980.3,N,0.0,0.0
1479116175.3,286046975.7,N,0.0,0.0
1479116195.2,286046979.4,N,0.0,0.0
1479116215.0,286046979.9,N,0.0,0.0
1479116215.9,286046979.9,N,0.0,0.0
1479116235.8,286046977.7,N,0.0,0.0
1479116255.6,286046977.9,N,0.0,0.0
1479116275.4,286046981.4,N,0.0,0.0
1479116295.3,286046980.1,N,0.0,0.0
1479116315.1,286046979.3,N,0.0,0.0
1479116335.8,286046980.3,N,0.0,0.0
1479116355.7,286046980.0,N,0.0,0.0
1479116375.5,286046980.3,N,0.0,0.0
1479116395.4,286046981.6,N,0.0,0.0
1479116415.2,286046979.9,N,0.0,0.0
1479116435.0,286046977.3,N,0.0,0.0
1479116435.9,286046977.3,N,0.0,0.0
1479116455.8,286046980.4,N,0.0,0.0
1479116475.6,286046977.4,N,0.0,0.0
1479116495.4,286046977.7,N,0.0,0.0
1479116515.3,286046977.8,N,0.0,0.0
1479116535.1,286046980.4,N,0.0,0.0
1479116555.8,286046975.7,N,0.0,0.0
1479116575.7,286046979.5,N,0.0,0.0
1479116595.5,286046985.1,N,0.0,0.0
1479116615.4,286046980.2,N,0.0,0.0
1479116635.2,286046976.4,N,0.0,0.0
1479116655.0,286046978.0,N,0.0,0.0
1479116655.9,286046978.0,N,0.0,0.0
1479116675.8,286046976.4,N,0.0,0.0
1479116695.6,286046977.7,N,0.0,0.0
1479116715.5,286046978.6,N,0.0,0.0
1479116735.3,286046976.8,N,0.0,0.0
1479116755.1,286046980.0,N,0.0,0.0
1479116775.9,286046978.5,N,0.0,0.0
1479116795.7,286046977.6,N,0.0,0.0
1479116815.5,286046978.1,N,0.0,0.0
1479116835.4,286046978.8,N,0.0,0.0
1479116855.2,286046972.6,N,0.0,0.0
1479116875.0,286046974.6,N,0.0,0.0
1479116876.0,286046974.6,N,0.0,0.0
1479116895.8,286046978.1,N,0.0,0.0
1479116915.6,286046978.1,N,0.0,0.0
1479116935.5,286046978.2,N,0.0,0.0
1479116955.3,286046978.7,N,0.0,0.0
1479116975.1,286046975.9,N,0.0,0.0
1479116995.9,286046982.0,N,0.0,0.0
1479117015.7,286046978.5,N,0.0,0.0
1479117035.5,286046976.4,N,0.0,0.0
1479117055.4,286046976.3,N,0.0,0.0
1479117075.2,286046976.8,N,0.0,0.0
1479117095.1,286046975.0,N,0.0,0.0
1479117096.0,286046975.0,N,0.0,0.0
1479117115.8,286046977.2,N,0.0,0.0
1479117135.6,286046974.8,N,0.0,0.0
1479117155.5,286046974.2,N,0.0,0.0
1479117175.3,286046974.6,N,0.0,0.0
1479117195.1,286046973.4,N,0.0,0.0
1479117215.9,286046973.8,N,0.0,0.0
1479117235.7,286046973.1,N,0.0,0.0
1479117255.6,286046973.2,N,0.0,0.0
1479117275.4,286046972.6,N,0.0,0.0
1479117295.2,286046972.8,N,0.0,0.0
1479117315.1,286047001.8,N,0.0,0.0
1479117316.0,286047001.8,N,0.0,0.0
1479117335.8,286046974.2,N,0.0,0.0
1479117355.6,286046976.9,N,0.0,0.0
1479117375.5,286046974.6,N,0.0,0.0
1479117395.3,286046974.1,N,0.0,0.0
1479117415.2,286046977.0,N,0.0,0.0
1479117435.9,286046975.9,N,0.0,0.0
1479117455.7,286046976.2,N,0.0,0.0
1479117475.6,286046978.2,N,0.0,0.0
1479117495.4,286046976.5,N,0.0,0.0
1479117515.2,286046975.9,N,0.0,0.0
1479117535.1,286046974.2,N,0.0,0.0
1479117536.0,286046974.2,N,0.0,0.0
1479117555.8,286046972.8,N,0.0,0.0
1479117575.7,286046975.0,N,0.0,0.0
1479117595.5,286046974.9,N,0.0,0.0
